Weather History for Jordan, MT

Change the Weather History Date:

Wednesday, May 15, 2013

  Actual Average Record
Temperature  
Mean Temperature 61 °F 52 °F  
Max Temperature 75 °F 66 °F 94 °F (1931)
Min Temperature 47 °F 38 °F 27 °F (1946)
Degree Days  
Heating Degree Days 4 13  
Month to date heating degree days 180 223  
Since 1 July heating degree days 7502 7957  
Cooling Degree Days 0 0  
Month to date cooling degree days 10 0  
Year to date cooling degree days 10 0  
Growing Degree Days 10 (Base 50)    
Moisture  
Dew Point 30 °F    
Average Humidity 39    
Maximum Humidity 59    
Minimum Humidity 18    
Precipitation  
Precipitation 0.00 in 0.06 in 1.50 in (1910)
Month to date precipitation 0.00 0.84  
Year to date precipitation 2.84 2.92  
Snow  
Snow 0.00 in - - ()
Month to date snowfall 0.0  
Since 1 July snowfall 0.0  
Snow Depth 0.00 in    
Sea Level Pressure  
Sea Level Pressure 29.93 in    
Wind  
Wind Speed 5 mph (NW)    
Max Wind Speed 13 mph    
Max Gust Speed 24 mph    
T = Trace of Precipitation, MM = Missing Value Source: NWS Daily Summary

Daily Weather History Graph

Daily Weather History Graph

Search for Another Location

Airport:

Trip Planner

Search our weather history database for the weather conditions in past years. The results will help you decide how hot, cold, wet, or windy it might be!

Date:

Astronomy

May. 15, 2013 Rise Set
Actual Time 5:30 AM MDT 8:38 PM MDT
Civil Twilight 4:54 AM MDT 9:14 PM MDT
Nautical Twilight 4:07 AM MDT 10:02 PM MDT
Astronomical Twilight 3:09 AM MDT 11:00 PM MDT
Moon 10:13 AM MDT (5/15) 12:22 AM MDT (5/15)
Length of Visible Light 16h 20m
Length of Day
15h 07m
Waxing Crescent, 27% of the Moon is Illuminated
May 15
Waxing Crescent
May 17
First Quarter
May 24
Full
May 31
Last Quarter
Jun 8
New

Hourly Weather History & Observations

Time (MDT) Temp. Dew Point Humidity Pressure Visibility Wind Dir Wind Speed Gust Speed Precip Events Conditions
12:48 AM 54.0 °F 30.0 °F 40% 29.93 in - WSW 5.8 mph - N/A   Unknown
1:48 AM 52.0 °F 30.0 °F 43% 29.94 in - West 6.9 mph - N/A   Unknown
2:48 AM 52.0 °F 28.9 °F 41% 29.94 in - West 5.8 mph - N/A   Unknown
3:48 AM 50.0 °F 28.9 °F 44% 29.96 in - WNW 6.9 mph - N/A   Unknown
4:48 AM 51.1 °F 30.0 °F 44% 29.96 in - WNW 9.2 mph - N/A   Unknown
5:48 AM 46.9 °F 32.0 °F 56% 29.98 in - WNW 3.5 mph - N/A   Unknown
6:48 AM 50.0 °F 34.0 °F 54% 29.99 in - West 8.1 mph - N/A   Unknown
7:48 AM 55.9 °F 32.0 °F 40% 30.01 in - WNW 6.9 mph - N/A   Unknown
8:48 AM 60.1 °F 30.9 °F 33% 30.01 in - NW 4.6 mph - N/A   Unknown
9:48 AM 64.0 °F 28.9 °F 27% 30.00 in - NW 8.1 mph - N/A   Unknown
10:48 AM 66.9 °F 28.0 °F 23% 29.98 in - NW 9.2 mph - N/A   Unknown
11:48 AM 69.1 °F 24.1 °F 18% 29.96 in - North - - N/A   Unknown
12:48 PM - - N/A% 29.97 in - North 5.8 mph - N/A   Unknown
1:48 PM 70.0 °F 27.0 °F 20% 29.94 in - Variable 6.9 mph - N/A   Unknown
2:48 PM 73.0 °F 28.0 °F 19% 29.91 in - NNW 5.8 mph - N/A   Unknown
3:48 PM 73.9 °F 28.0 °F 18% 29.89 in - Calm Calm - N/A   Unknown
4:48 PM 72.0 °F 27.0 °F 19% 29.88 in - Calm Calm - N/A   Unknown
5:48 PM 72.0 °F 28.0 °F 20% 29.88 in - North 5.8 mph - N/A   Unknown
6:48 PM 69.1 °F 32.0 °F 25% 29.87 in - NNW 5.8 mph - N/A   Unknown
7:48 PM 64.9 °F 37.9 °F 37% 29.87 in - NNE 3.5 mph - N/A   Unknown
8:48 PM 63.0 °F 32.0 °F 31% 29.86 in - East 5.8 mph - N/A   Unknown
9:48 PM 57.9 °F 33.1 °F 39% 29.88 in - East 4.6 mph - N/A   Unknown
10:48 PM 53.1 °F 33.1 °F 47% 29.88 in - Calm Calm - N/A   Unknown
11:48 PM 52.0 °F 37.0 °F 57% 29.87 in - Calm Calm - N/A   Unknown